GW5021 Weather Reports


time (UTC)temp
F
wind
direction
speed
knots
gust
knots
rain 1hr
in
rain 24hr
in
rain mn
in
humidity
%
barometer
mb
20260506222510 79 269 1.7 4.3 0.00 0.00 0.00 46 1017.7
20260506222003 79 153 1.7 5.2 0.00 0.00 0.00 45 1017.7
20260506221508 80 90 1.7 5.2 0.00 0.00 0.00 45 1017.8
20260506221004 80 348 0.9 3.5 0.00 0.00 0.00 46 1017.8
20260506220504 80 349 0.9 3.5 0.00 0.00 0.00 46 1017.9
20260506220012 79 340 0.0 6.1 0.00 0.00 0.00 47 1018.0
20260506215504 79 359 1.7 6.1 0.00 0.00 0.00 46 1018.1
20260506215006 79 283 0.9 4.3 0.00 0.00 0.00 45 1018.1
20260506214516 79 14 0.9 3.5 0.00 0.00 0.00 45 1018.2
20260506214004 79 157 0.9 3.5 0.00 0.00 0.00 47 1018.3
20260506213513 78 120 0.9 7.8 0.00 0.00 0.00 48 1018.4
20260506213018 78 305 2.6 7.8 0.00 0.00 0.00 47 1018.5
20260506212508 78 352 1.7 4.3 0.00 0.00 0.00 47 1018.5
20260506212014 79 316 1.7 3.5 0.00 0.00 0.00 48 1018.5
20260506211530 78 352 0.9 6.1 0.00 0.00 0.00 47 1018.5
20260506211007 78 205 2.6 6.1 0.00 0.00 0.00 47 1018.5
20260506210507 78 297 0.9 3.5 0.00 0.00 0.00 49 1018.5
20260506210008 78 255 0.9 3.5 0.00 0.00 0.00 48 1018.5
20260506205504 78 137 0.9 3.5 0.00 0.00 0.00 47 1018.6
20260506205003 77 285 1.7 3.5 0.00 0.00 0.00 49 1018.6
20260506204512 77 353 0.9 4.3 0.00 0.00 0.00 48 1018.7
20260506204007 77 123 1.7 4.3 0.00 0.00 0.00 48 1018.7
20260506203509 77 127 0.9 3.5 0.00 0.00 0.00 49 1018.8
20260506203016 76 263 1.7 3.5 0.00 0.00 0.00 50 1018.8
20260506202508 76 140 1.7 3.5 0.00 0.00 0.00 49 1018.8
20260506202007 76 133 0.9 4.3 0.00 0.00 0.00 50 1018.9
20260506201523 76 326 1.7 4.3 0.00 0.00 0.00 50 1019.1
20260506201007 75 325 0.9 5.2 0.00 0.00 0.00 51 1019.1
20260506200508 75 316 0.9 5.2 0.00 0.00 0.00 51 1019.1
20260506200025 75 326 0.9 2.6 0.00 0.00 0.00 52 1019.2
20260506195507 75 333 0.9 4.3 0.00 0.00 0.00 51 1019.2
20260506195005 75 307 1.7 4.3 0.00 0.00 0.00 50 1019.3
20260506194509 75 84 0.9 5.2 0.00 0.00 0.00 51 1019.3
20260506194008 74 135 0.9 5.2 0.00 0.00 0.00 53 1019.4
20260506193504 74 139 1.7 6.1 0.00 0.00 0.00 51 1019.5
20260506193021 74 300 0.9 6.1 0.00 0.00 0.00 53 1019.5
20260506192504 74 150 1.7 3.5 0.00 0.00 0.00 52 1019.6
20260506192010 74 135 0.0 3.5 0.00 0.00 0.00 53 1019.5
20260506191518 73 8 0.9 3.5 0.00 0.00 0.00 54 1019.5
20260506191010 74 14 0.9 3.5 0.00 0.00 0.00 53 1019.6
20260506190509 73 151 0.9 4.3 0.00 0.00 0.00 54 1019.6
20260506190030 72 170 0.9 6.1 0.00 0.00 0.00 54 1019.7
20260506185512 72 316 2.6 6.1 0.00 0.00 0.00 54 1019.7
20260506185010 71 129 0.9 4.3 0.00 0.00 0.00 55 1019.7
20260506184536 71 351 1.7 4.3 0.00 0.00 0.00 56 1019.7
20260506184008 71 359 1.7 4.3 0.00 0.00 0.00 55 1019.7
20260506183504 71 321 1.7 4.3 0.00 0.00 0.00 54 1019.8
20260506183013 71 189 1.7 5.2 0.00 0.00 0.00 55 1019.8
20260506182508 71 335 0.9 5.2 0.00 0.00 0.00 55 1019.9
20260506182006 71 316 0.0 2.6 0.00 0.00 0.00 54 1019.9
20260506181527 70 183 0.9 4.3 0.00 0.00 0.00 57 1020.0
20260506181006 70 98 0.9 4.3 0.00 0.00 0.00 57 1020.0
20260506180508 70 278 1.7 3.5 0.00 0.00 0.00 57 1019.9
20260506180025 70 143 0.9 2.6 0.00 0.00 0.00 56 1019.9
20260506175511 70 131 0.9 2.6 0.00 0.00 0.00 57 1020.0
20260506175003 69 7 0.9 3.5 0.00 0.00 0.00 59 1020.0
20260506174508 69 20 0.9 3.5 0.00 0.00 0.00 58 1020.0
20260506174003 68 351 0.9 6.1 0.00 0.00 0.00 59 1020.0
20260506173506 68 13 1.7 6.1 0.00 0.00 0.00 60 1020.0
20260506173012 68 317 1.7 3.5 0.00 0.00 0.00 58 1020.1
20260506172504 69 339 0.9 3.5 0.00 0.00 0.00 58 1020.0
20260506172004 69 212 0.9 1.7 0.00 0.00 0.00 59 1020.1
20260506171516 68 356 0.9 1.7 0.00 0.00 0.00 59 1020.1
20260506171008 68 314 0.0 4.3 0.00 0.00 0.00 60 1020.2
20260506170507 67 219 0.9 4.3 0.00 0.00 0.00 62 1020.2
20260506170027 67 257 0.0 2.6 0.00 0.00 0.00 61 1020.2
20260506165508 67 312 0.0 1.7 0.00 0.00 0.00 61 1020.3
20260506165008 66 285 0.0 2.6 0.00 0.00 0.00 61 1020.2
20260506164541 66 174 0.9 2.6 0.00 0.00 0.00 62 1020.2
20260506164007 66 250 0.0 2.6 0.00 0.00 0.00 62 1020.3
20260506163509 65 145 0.0 2.6 0.00 0.00 0.00 63 1020.2
20260506163013 65 8 0.9 1.7 0.00 0.00 0.00 63 1020.3
20260506162508 65 296 0.9 1.7 0.00 0.00 0.00 63 1020.4
20260506162007 65 352 0.0 1.7 0.00 0.00 0.00 64 1020.3
20260506161512 64 152 0.0 2.6 0.00 0.00 0.00 66 1020.4
20260506161003 63 158 0.0 2.6 0.00 0.00 0.00 67 1020.5
20260506160504 63 300 0.0 2.6 0.00 0.00 0.00 68 1020.5
20260506160019 63 352 0.0 3.5 0.00 0.00 0.00 68 1020.5
20260506155507 63 299 0.0 3.5 0.00 0.00 0.00 67 1020.5
20260506155006 63 240 0.0 1.7 0.00 0.00 0.00 68 1020.5
20260506154524 62 259 0.0 1.7 0.00 0.00 0.00 69 1020.4
20260506154008 62 252 0.0 1.7 0.00 0.00 0.00 69 1020.5
20260506153507 61 173 0.0 1.7 0.00 0.00 0.00 70 1020.4
20260506153026 61 260 0.0 0.9 0.00 0.00 0.00 70 1020.5
20260506152509 60 214 0.0 0.0 0.00 0.00 0.00 72 1020.4
20260506152011 59 203 0.0 0.0 0.00 0.00 0.00 74 1020.4
20260506151514 58 203 0.0 0.0 0.00 0.00 0.00 76 1020.4
20260506151003 56 203 0.0 0.0 0.00 0.00 0.00 79 1020.4
20260506150504 55 203 0.0 0.0 0.00 0.00 0.00 84 1020.4
20260506150014 53 203 0.0 0.0 0.00 0.00 0.00 85 1020.5
20260506145505 52 203 0.0 0.0 0.00 0.00 0.00 86 1020.6
20260506145008 52 203 0.0 0.0 0.00 0.00 0.00 88 1020.8
20260506144526 52 203 0.0 0.0 0.00 0.00 0.00 88 1020.8
20260506144008 51 203 0.0 0.0 0.00 0.00 0.00 89 1020.8
20260506143508 51 203 0.0 0.0 0.00 0.00 0.00 89 1020.7
20260506143025 51 203 0.0 0.0 0.00 0.00 0.00 90 1020.8
20260506142511 51 203 0.0 0.0 0.00 0.00 0.00 90 1020.7
20260506142007 50 203 0.0 0.0 0.00 0.00 0.00 90 1020.4
20260506141530 50 203 0.0 0.0 0.00 0.00 0.00 90 1020.6
20260506141007 50 203 0.0 0.0 0.00 0.00 0.00 90 1020.6
20260506140507 49 203 0.0 0.0 0.00 0.00 0.00 89 1020.5
20260506140012 49 203 0.0 0.0 0.00 0.00 0.00 89 1020.4
20260506135503 49 203 0.0 0.0 0.00 0.00 0.00 89 1020.3
20260506135008 49 203 0.0 0.0 0.00 0.00 0.00 89 1020.2
20260506134516 49 203 0.0 0.0 0.00 0.00 0.00 89 1020.2
20260506134009 49 203 0.0 0.0 0.00 0.00 0.00 89 1020.2
20260506133509 49 203 0.0 0.0 0.00 0.00 0.00 89 1020.2
20260506133020 49 203 0.0 0.0 0.00 0.00 0.00 89 1020.1
20260506132506 49 203 0.0 0.0 0.00 0.00 0.00 89 1020.0
20260506132007 49 203 0.0 0.0 0.00 0.00 0.00 88 1020.0
20260506131525 49 203 0.0 0.0 0.00 0.00 0.00 88 1019.9
20260506131008 49 203 0.0 0.0 0.00 0.00 0.00 88 1020.0
20260506130509 49 203 0.0 0.0 0.00 0.00 0.00 88 1020.0
20260506130026 49 203 0.0 0.0 0.00 0.00 0.00 88 1019.9
20260506125509 49 203 0.0 0.0 0.00 0.00 0.00 88 1019.9
20260506125009 49 203 0.0 0.0 0.00 0.00 0.00 88 1019.8
20260506124514 49 203 0.0 0.0 0.00 0.00 0.00 87 1019.8
20260506124004 49 203 0.0 0.0 0.00 0.00 0.00 88 1019.7
20260506123504 49 203 0.0 0.0 0.00 0.00 0.00 88 1019.7
20260506123018 49 203 0.0 0.0 0.00 0.00 0.00 87 1019.7
20260506122505 50 203 0.0 0.0 0.00 0.00 0.00 87 1019.8
20260506122010 50 203 0.0 0.0 0.00 0.00 0.00 87 1019.7
20260506121520 50 203 0.0 0.0 0.00 0.00 0.00 87 1019.7
20260506121008 50 203 0.0 0.0 0.00 0.00 0.00 87 1019.7
20260506120506 50 203 0.0 0.0 0.00 0.00 0.00 86 1019.7
20260506120047 50 203 0.0 0.0 0.00 0.00 0.00 86 1019.7
20260506115508 50 203 0.0 0.0 0.00 0.00 0.00 86 1019.6
20260506115009 51 203 0.0 0.0 0.00 0.00 0.00 86 1019.5
20260506114532 51 203 0.0 0.0 0.00 0.00 0.00 86 1019.5
20260506114012 51 203 0.0 0.0 0.00 0.00 0.00 85 1019.4
20260506113511 51 203 0.0 0.0 0.00 0.00 0.00 85 1019.4
20260506113028 51 203 0.0 0.0 0.00 0.00 0.00 85 1019.3
20260506112504 52 203 0.0 0.0 0.00 0.00 0.00 85 1019.3
20260506112007 52 203 0.0 0.0 0.00 0.00 0.00 85 1019.3
20260506111519 52 203 0.0 0.0 0.00 0.00 0.00 85 1019.3
20260506111006 52 203 0.0 0.0 0.00 0.00 0.00 85 1019.3
20260506110507 52 203 0.0 0.0 0.00 0.00 0.00 85 1019.3
20260506110026 52 203 0.0 0.0 0.00 0.00 0.00 85 1019.3
20260506105506 52 203 0.0 0.0 0.00 0.00 0.00 84 1019.3
20260506105007 52 203 0.0 0.0 0.00 0.00 0.00 84 1019.3
20260506104537 52 203 0.0 0.0 0.00 0.00 0.00 84 1019.3
20260506104011 53 203 0.0 0.0 0.00 0.00 0.00 84 1019.3
20260506103508 53 203 0.0 0.0 0.00 0.00 0.00 84 1019.2
20260506103039 53 203 0.0 0.0 0.00 0.00 0.00 83 1019.3
20260506102511 53 203 0.0 0.0 0.00 0.00 0.00 83 1019.2
20260506102008 53 203 0.0 0.0 0.00 0.00 0.00 83 1019.1
20260506101528 53 203 0.0 0.0 0.00 0.00 0.00 83 1019.1
20260506101004 53 203 0.0 0.0 0.00 0.00 0.00 83 1019.1
20260506100511 53 203 0.0 0.0 0.00 0.00 0.00 83 1019.1
20260506095502 54 203 0.0 0.0 0.00 0.00 0.00 82 1019.0
20260506095004 54 203 0.0 0.0 0.00 0.00 0.00 82 1019.1
20260506094503 54 203 0.0 0.0 0.00 0.00 0.00 82 1019.1
20260506094003 54 203 0.0 0.0 0.00 0.00 0.00 82 1019.1
20260506093502 54 203 0.0 0.0 0.00 0.00 0.00 82 1019.1
20260506093018 54 203 0.0 0.0 0.00 0.00 0.00 82 1019.0
20260506092503 54 203 0.0 0.0 0.00 0.00 0.00 82 1019.1
20260506092003 54 203 0.0 0.0 0.00 0.00 0.00 82 1019.1
20260506091516 54 203 0.0 0.0 0.00 0.00 0.00 82 1019.2
20260506091016 54 203 0.0 0.0 0.00 0.00 0.00 82 1019.2
20260506090506 54 203 0.0 0.0 0.00 0.00 0.00 82 1019.3
20260506090019 54 203 0.0 0.0 0.00 0.00 0.00 81 1019.3
20260506085507 54 203 0.0 0.0 0.00 0.00 0.00 81 1019.3
20260506084554 54 203 0.0 0.0 0.00 0.00 0.00 81 1019.1
20260506084012 55 203 0.0 0.0 0.00 0.00 0.00 81 1019.0
20260506083503 55 203 0.0 0.0 0.00 0.00 0.00 81 1019.0
20260506083007 55 204 0.0 0.0 0.00 0.00 0.00 80 1019.0
20260506082502 55 203 0.0 0.0 0.00 0.00 0.00 80 1019.0
20260506082002 55 203 0.0 0.0 0.00 0.00 0.00 80 1019.1
20260506081008 55 203 0.0 0.0 0.00 0.00 0.00 80 1019.1
20260506080504 55 203 0.0 0.0 0.00 0.00 0.00 80 1019.1
20260506073508 55 203 0.0 0.0 0.00 0.00 0.00 79 1018.7
20260506073023 55 203 0.0 0.0 0.00 0.00 0.00 79 1018.6
20260506072508 55 203 0.0 0.0 0.00 0.00 0.00 79 1018.6
20260506072004 56 203 0.0 0.0 0.00 0.00 0.00 79 1018.6
20260506071507 56 203 0.0 0.0 0.00 0.00 0.00 79 1018.5
20260506071003 56 203 0.0 0.0 0.00 0.00 0.00 79 1018.6
20260506070503 56 203 0.0 0.0 0.00 0.00 0.00 78 1018.5
20260506062507 56 203 0.0 0.0 0.00 0.00 0.00 77 1018.3
20260506062007 56 203 0.0 0.0 0.00 0.00 0.00 77 1018.1
20260506061523 57 203 0.0 0.0 0.00 0.00 0.00 77 1018.2
20260506061009 57 203 0.0 0.0 0.00 0.00 0.00 77 1018.1
20260506060504 57 203 0.0 0.0 0.00 0.00 0.00 77 1018.1
20260506051010 58 135 0.0 0.9 0.00 0.00 0.00 73 1017.8
20260506050508 58 135 0.0 0.9 0.00 0.00 0.00 73 1017.7
20260506045005 58 168 0.0 0.9 0.00 0.00 0.00 73 1017.6
20260506044508 58 161 0.0 0.0 0.00 0.00 0.00 73 1017.6
20260506044006 58 162 0.0 0.0 0.00 0.00 0.00 73 1017.5
20260506043508 59 151 0.0 0.9 0.00 0.00 0.00 73 1017.5
20260506043015 59 152 0.0 0.9 0.00 0.00 0.00 73 1017.4
20260506042504 59 154 0.0 0.9 0.00 0.00 0.00 73 1017.4
20260506042006 59 142 0.0 0.9 0.00 0.00 0.00 73 1017.3
20260506041519 59 154 0.0 0.0 0.00 0.00 0.00 73 1017.3
20260506041006 59 154 0.0 0.9 0.00 0.00 0.00 73 1017.2
20260506040509 59 154 0.0 0.9 0.00 0.00 0.00 73 1017.1
20260506040027 59 148 0.0 0.9 0.00 0.00 0.00 73 1017.2
20260506035509 59 122 0.0 0.9 0.00 0.00 0.00 73 1017.1
20260506035013 59 122 0.0 0.9 0.00 0.00 0.00 73 1017.1
20260506034526 59 210 0.0 0.9 0.00 0.00 0.00 73 1017.0
20260506034010 59 210 0.0 0.9 0.00 0.00 0.00 73 1016.9
20260506033507 59 27 0.0 1.7 0.00 0.00 0.00 73 1016.7
20260506033012 59 27 0.0 1.7 0.00 0.00 0.00 73 1016.7
20260506032505 59 229 0.0 2.6 0.00 0.00 0.00 73 1016.6
20260506032056 59 203 0.0 2.6 0.00 0.00 0.00 73 1016.5
20260506031505 59 139 0.0 1.7 0.00 0.00 0.00 72 1016.4
20260506031003 60 111 0.0 1.7 0.00 0.00 0.00 72 1016.3
20260506030504 60 162 0.0 1.7 0.00 0.00 0.00 72 1016.2
20260506030005 60 160 0.9 1.7 0.00 0.00 0.00 72 1016.2
20260506025503 60 136 0.9 1.7 0.00 0.00 0.00 71 1016.2
20260506025008 61 159 0.0 1.7 0.00 0.00 0.00 69 1016.2
20260506024503 61 297 0.0 0.9 0.00 0.00 0.00 67 1016.1
20260506024004 61 297 0.0 0.9 0.00 0.00 0.00 67 1016.0
20260506023504 61 297 0.0 0.9 0.00 0.00 0.00 67 1016.1
20260506023006 61 297 0.0 0.9 0.00 0.00 0.00 67 1016.0
20260506022503 61 260 0.0 0.9 0.00 0.00 0.00 67 1016.0
20260506022003 61 315 0.0 0.9 0.00 0.00 0.00 67 1015.9
20260506021504 61 336 0.0 0.9 0.00 0.00 0.00 67 1016.0
20260506021009 61 343 0.0 0.9 0.00 0.00 0.00 67 1016.1
20260506020504 61 343 0.0 0.9 0.00 0.00 0.00 67 1016.1
20260506020003 61 110 0.0 0.9 0.00 0.00 0.00 68 1016.1
20260506015504 61 134 0.0 0.9 0.00 0.00 0.00 68 1016.1
20260506015004 61 187 0.0 0.9 0.00 0.00 0.00 69 1016.2
20260506014505 61 187 0.0 0.0 0.00 0.00 0.00 69 1016.2
20260506014004 61 187 0.0 0.0 0.00 0.00 0.00 69 1016.2
20260506013505 61 187 0.0 0.0 0.00 0.00 0.00 68 1016.2
20260506013007 61 185 0.0 1.7 0.00 0.00 0.00 69 1016.2
20260506012504 61 185 0.0 1.7 0.00 0.00 0.00 69 1016.2
20260506012004 61 45 0.0 1.7 0.00 0.00 0.00 68 1016.0
20260506011506 62 112 0.0 0.9 0.00 0.00 0.00 67 1016.1
20260506011004 62 109 0.0 0.9 0.00 0.00 0.00 66 1016.1
20260506010507 62 139 0.0 1.7 0.00 0.00 0.00 65 1016.1
20260506010007 62 300 0.0 1.7 0.00 0.00 0.00 65 1016.0
20260506005504 62 224 0.0 2.6 0.00 0.00 0.00 65 1016.0
20260506005004 62 342 0.0 2.6 0.00 0.00 0.00 65 1015.9
20260506004511 62 320 0.0 1.7 0.00 0.00 0.00 65 1015.9
20260506004004 62 289 0.0 1.7 0.00 0.00 0.00 65 1015.9
20260506003507 62 205 0.0 1.7 0.00 0.00 0.00 65 1015.9
20260506003007 62 274 0.0 1.7 0.00 0.00 0.00 65 1015.8
20260506002504 62 294 0.0 1.7 0.00 0.00 0.00 64 1015.8
20260506002004 63 264 0.0 1.7 0.00 0.00 0.00 65 1015.8
20260506001509 63 338 0.0 1.7 0.00 0.00 0.00 64 1015.8
20260506001004 63 139 0.0 1.7 0.00 0.00 0.00 64 1015.7
20260506000504 63 150 0.0 1.7 0.00 0.00 0.00 63 1015.6
20260506000009 63 313 0.0 1.7 0.00 0.00 0.00 63 1015.6
20260505235505 63 254 0.0 0.9 0.00 0.00 0.00 64 1015.6
20260505235006 63 288 0.0 1.7 0.00 0.00 0.00 63 1015.7
20260505234508 63 290 0.0 1.7 0.00 0.00 0.00 63 1015.7
20260505234004 64 346 0.0 0.9 0.00 0.00 0.00 62 1015.7
20260505233508 63 200 0.0 1.7 0.00 0.00 0.00 64 1015.7
20260505233012 63 188 0.0 1.7 0.00 0.00 0.00 64 1015.7
20260505232504 63 291 0.9 2.6 0.00 0.00 0.00 64 1015.8
20260505232006 63 330 0.9 2.6 0.00 0.00 0.00 64 1015.7
20260505231518 63 311 0.9 2.6 0.00 0.00 0.00 64 1015.8
20260505231011 63 248 0.9 3.5 0.00 0.00 0.00 65 1015.8
20260505230502 62 263 0.9 4.3 0.00 0.00 0.00 65 1015.9
20260505230020 62 288 1.7 4.3 0.00 0.00 0.00 65 1015.8
20260505225504 62 323 0.9 5.2 0.00 0.00 0.00 66 1015.9
20260505225004 62 347 0.9 5.2 0.00 0.00 0.00 66 1015.9
20260505224515 62 317 2.6 5.2 0.00 0.00 0.00 65 1015.9
20260505224009 62 337 0.9 3.5 0.00 0.00 0.00 67 1015.9
20260505223505 62 303 0.9 4.3 0.00 0.00 0.00 67 1016.0
20260505223011 61 300 0.9 4.3 0.00 0.00 0.00 67 1015.9